DW8847 Weather Reports


Display with metric or nautical units.
time (UTC)temp
F
wind
direction
speed
MPH
gust
MPH
rain 1hr
in
rain 24hr
in
rain mn
in
humidity
%
barometer
mb
20260906110047 87 60 1.0 5.0 0.00 0.00 0.00 43 1021.0
20260906104546 86 35 5.0 9.0 0.00 0.00 0.00 43 1021.0
20260906103047 85 13 5.0 11.0 0.00 0.00 0.00 43 1021.0
20260906101540 85 13 4.0 10.0 0.00 0.00 0.00 44 1021.1
20260906100037 84 71 4.0 11.0 0.00 0.00 0.00 46 1021.2
20260906094540 84 23 7.0 12.0 0.00 0.00 0.00 45 1021.3
20260906093033 83 43 6.0 16.0 0.00 0.00 0.00 46 1021.5
20260906091528 83 46 6.0 12.0 0.00 0.00 0.00 47 1021.4
20260906090027 83 19 6.0 11.0 0.00 0.00 0.00 48 1021.4
20260906084522 83 13 6.0 11.0 0.00 0.00 0.00 51 1021.5
20260906083019 82 35 4.0 11.0 0.00 0.00 0.00 52 1021.6
20260906081519 82 22 4.0 9.0 0.00 0.00 0.00 53 1021.6
20260906080016 81 55 3.0 7.0 0.00 0.00 0.00 55 1021.5
20260906074506 80 61 5.0 11.0 0.00 0.00 0.00 57 1021.5
20260906073006 79 35 5.0 11.0 0.00 0.00 0.00 58 1021.3
20260906071559 79 61 3.0 8.0 0.00 0.00 0.00 61 1021.4
20260906070055 78 72 5.0 9.0 0.00 0.00 0.00 63 1021.3
20260906064550 76 17 2.0 5.0 0.00 0.00 0.00 70 1021.1
20260906063047 74 16 2.0 4.0 0.00 0.00 0.00 73 1021.1
20260906061547 73 60 0.0 4.0 0.00 0.00 0.00 76 1021.1
20260906060042 72 22 3.0 5.0 0.00 0.00 0.00 77 1020.8
20260906054537 70 24 3.0 5.0 0.00 0.00 0.00 80 1020.7
20260906053030 69 36 1.0 3.0 0.00 0.00 0.00 83 1020.6
20260906051527 68 36 1.0 3.0 0.00 0.00 0.00 84 1020.5
20260906050025 68 36 1.0 3.0 0.00 0.00 0.00 84 1020.3
20260906044521 67 36 1.0 4.0 0.00 0.00 0.00 85 1020.0
20260906043029 67 40 1.0 3.0 0.00 0.00 0.00 85 1020.0
20260906041520 67 40 0.0 2.0 0.00 0.00 0.00 86 1019.9
20260906040018 67 40 0.0 2.0 0.00 0.00 0.00 86 1019.8
20260906034529 67 40 0.0 2.0 0.00 0.00 0.00 86 1019.8
20260906033015 67 40 0.0 2.0 0.00 0.00 0.00 86 1019.7
20260906031520 68 40 0.0 2.0 0.00 0.00 0.00 85 1019.5
20260906030011 68 40 0.0 2.0 0.00 0.00 0.00 85 1019.4
20260906024511 68 40 1.0 2.0 0.00 0.00 0.00 85 1019.2
20260906023012 68 40 0.0 2.0 0.00 0.00 0.00 85 1019.3
20260906021510 68 40 0.0 2.0 0.00 0.00 0.00 85 1019.2
20260906020008 68 40 0.0 2.0 0.00 0.00 0.00 85 1019.2
20260906014507 68 40 0.0 3.0 0.00 0.00 0.00 85 1019.1
20260906013007 68 40 0.0 2.0 0.00 0.00 0.00 85 1019.1
20260906011505 68 40 0.0 2.0 0.00 0.00 0.00 84 1019.0
20260906010004 68 40 0.0 2.0 0.00 0.00 0.00 84 1018.9
20260906004503 68 40 0.0 2.0 0.00 0.00 0.00 84 1018.9
20260906003003 69 40 1.0 3.0 0.00 0.00 0.00 83 1018.9
20260906001502 69 40 0.0 2.0 0.00 0.00 0.00 82 1018.9
20260906000001 69 40 0.0 0.0 0.00 0.00 0.00 83 1018.9
20260905234601 69 40 0.0 2.0 0.00 0.00 0.00 83 1018.8
20260905233059 69 40 0.0 2.0 0.00 0.00 0.00 83 1018.7
20260905231607 69 40 0.0 2.0 0.00 0.00 0.00 85 1018.7
20260905230058 68 40 0.0 2.0 0.00 0.00 0.00 86 1018.8
20260905224555 69 40 0.0 2.0 0.00 0.00 0.00 85 1018.6
20260905223056 69 40 0.0 2.0 0.00 0.00 0.00 84 1018.5
20260905221549 70 40 0.0 2.0 0.00 0.00 0.00 83 1018.3
20260905220046 71 40 0.0 2.0 0.00 0.00 0.00 82 1018.2
20260905214548 73 40 0.0 2.0 0.00 0.00 0.00 80 1018.1
20260905213043 74 40 0.0 2.0 0.00 0.00 0.00 76 1018.0
20260905211546 74 40 0.0 3.0 0.00 0.00 0.00 77 1018.1
20260905210056 73 42 0.0 0.0 0.00 0.00 0.00 86 1017.9
20260905204541 73 42 0.0 1.0 0.00 0.00 0.00 88 1017.9
20260905203041 73 42 1.0 2.0 0.00 0.00 0.00 88 1018.0
20260905201540 73 42 0.0 0.0 0.00 0.00 0.00 87 1017.9
20260905200105 75 42 0.0 2.0 0.00 0.00 0.00 85 1017.6
20260905194535 75 42 0.0 0.0 0.00 0.00 0.00 85 1017.4
20260905193039 75 42 0.0 0.0 0.00 0.00 0.00 83 1017.2
20260905191535 76 42 0.0 4.0 0.00 0.00 0.00 82 1017.2
20260905190032 76 70 0.0 2.0 0.00 0.00 0.00 79 1017.0
20260905184535 77 70 0.0 0.0 0.00 0.00 0.00 75 1016.6
20260905183037 79 70 0.0 2.0 0.00 0.00 0.00 73 1016.4
20260905181524 78 70 0.0 0.0 0.00 0.00 0.00 71 1016.1
20260905180024 80 70 0.0 1.0 0.00 0.00 0.00 70 1015.9
20260905174525 82 70 0.0 0.0 0.00 0.00 0.00 66 1015.6
20260905173038 84 70 0.0 0.0 0.00 0.00 0.00 63 1015.4
20260905171523 85 70 0.0 0.0 0.00 0.00 0.00 62 1015.3
20260905170023 86 70 0.0 0.0 0.00 0.00 0.00 58 1015.1
20260905164522 87 70 0.0 0.0 0.00 0.00 0.00 55 1015.1
20260905163022 87 70 0.0 1.0 0.00 0.00 0.00 52 1014.9
20260905161521 88 70 0.0 2.0 0.00 0.00 0.00 49 1014.8
20260905160020 89 70 0.0 2.0 0.00 0.00 0.00 47 1014.8
20260905154520 89 70 0.0 1.0 0.00 0.00 0.00 47 1014.8
20260905153027 89 70 0.0 2.0 0.00 0.00 0.00 47 1014.6
20260905151520 88 70 0.0 2.0 0.00 0.00 0.00 46 1014.6
20260905150024 88 49 0.0 3.0 0.00 0.00 0.00 47 1014.6
20260905144519 89 49 0.0 2.0 0.00 0.00 0.00 44 1014.6
20260905143025 89 56 1.0 4.0 0.00 0.00 0.00 44 1014.6
20260905141518 88 30 0.0 3.0 0.00 0.00 0.00 47 1014.6
20260905140018 89 49 0.0 2.0 0.00 0.00 0.00 44 1014.8
20260905134526 89 61 0.0 3.0 0.00 0.00 0.00 44 1014.7
20260905133016 88 43 0.0 4.0 0.00 0.00 0.00 44 1014.8
20260905131515 89 96 1.0 3.0 0.00 0.00 0.00 42 1014.9
20260905130014 90 96 0.0 2.0 0.00 0.00 0.00 43 1015.0
20260905124520 88 51 1.0 5.0 0.00 0.00 0.00 46 1015.1
20260905123036 89 57 1.0 8.0 0.00 0.00 0.00 45 1015.3
20260905121515 88 42 0.0 4.0 0.00 0.00 0.00 48 1015.2
20260905120009 88 80 0.0 2.0 0.00 0.00 0.00 47 1015.4
20260905114508 89 60 0.0 2.0 0.00 0.00 0.00 47 1015.4
20260905113006 86 60 0.0 2.0 0.00 0.00 0.00 51 1015.5
20260905111506 86 60 0.0 4.0 0.00 0.00 0.00 51 1015.6